DW0835 Weather Reports


time (UTC)temp
C
wind
direction
speed
KPH
gust
KPH
rain 1hr
cm
rain 24hr
cm
rain mn
cm
humidity
%
barometer
mb
20201020170531 6 0.0 4.8 0.00 0.00 0.00 81 1024.6
20201020165532 6 0.0 3.2 0.00 0.00 0.00 82 1025.0
20201020164519 6 0.0 3.2 0.00 0.00 0.00 81 1025.0
20201020163532 6 0.0 6.4 0.00 0.00 0.00 81 1024.7
20201020162520 6 0.0 8.0 0.00 0.00 0.00 81 1025.2
20201020161538 5 338 1.6 4.8 0.00 0.00 0.00 82 1025.2
20201020160520 5 338 1.6 9.7 0.00 0.00 0.00 81 1025.5
20201020155531 5 338 1.6 8.0 0.00 0.00 0.00 81 1025.4
20201020154531 5 338 1.6 6.4 0.00 0.00 0.00 81 1025.4
20201020153518 5 0.0 3.2 0.00 0.00 0.00 81 1025.5
20201020152530 5 0.0 3.2 0.00 0.00 0.00 80 1025.6
20201020151526 5 0.0 4.8 0.00 0.00 0.00 80 1025.6
20201020150533 5 0.0 6.4 0.00 0.00 0.00 80 1025.4
20201020145530 5 338 1.6 6.4 0.00 0.00 0.00 80 1025.4
20201020144533 5 0.0 3.2 0.00 0.00 0.00 81 1025.4
20201020143530 5 0.0 3.2 0.00 0.00 0.00 81 1025.6
20201020142530 4 0.0 4.8 0.00 0.00 0.00 82 1025.4
20201020141534 3 0.0 4.8 0.00 0.00 0.00 82 1025.4
20201020140522 3 0.0 4.8 0.00 0.00 0.00 81 1025.4
20201020135529 3 0.0 6.4 0.00 0.00 0.00 80 1025.3
20201020134529 3 0.0 4.8 0.00 0.00 0.00 79 1025.3
20201020133533 3 0.0 3.2 0.00 0.00 0.00 79 1025.4
20201020132531 3 0.0 1.6 0.00 0.00 0.00 79 1025.4
20201020131521 3 0.0 4.8 0.00 0.00 0.00 77 1025.4
20201020130521 3 0.0 4.8 0.00 0.00 0.00 77 1025.5
20201020125530 3 0.0 0.0 0.00 0.00 0.00 76 1025.1
20201020124520 3 0.0 0.0 0.00 0.00 0.00 75 1025.1
20201020123530 3 0.0 0.0 0.00 0.00 0.00 74 1025.0
20201020122520 3 0.0 4.8 0.00 0.00 0.00 74 1025.0
20201020121533 3 0.0 6.4 0.00 0.00 0.00 75 1025.0
20201020120521 3 0.0 4.8 0.00 0.00 0.00 74 1024.6
20201020115522 3 0.0 3.2 0.00 0.00 0.00 73 1024.5
20201020114529 3 0.0 4.8 0.00 0.00 0.00 72 1024.5
20201020113535 3 0.0 6.4 0.00 0.00 0.00 71 1024.5
20201020112518 3 0.0 4.8 0.00 0.00 0.00 70 1024.7
20201020111520 3 338 1.6 6.4 0.00 0.00 0.00 69 1024.7
20201020110529 3 338 1.6 6.4 0.00 0.00 0.00 68 1024.4
20201020105517 3 338 1.6 6.4 0.00 0.00 0.00 68 1024.4
20201020104518 3 338 1.6 4.8 0.00 0.00 0.00 69 1024.4
20201020103530 2 0.0 4.8 0.00 0.00 0.00 70 1024.1
20201020102529 2 338 1.6 8.0 0.00 0.00 0.00 70 1024.1
20201020101518 2 338 1.6 8.0 0.00 0.00 0.00 68 1024.1
20201020100518 2 338 1.6 4.8 0.00 0.00 0.00 66 1024.1
20201020095529 2 0.0 4.8 0.00 0.00 0.00 65 1024.3
20201020094529 2 338 1.6 6.4 0.00 0.00 0.00 65 1024.4
20201020093520 2 0.0 4.8 0.00 0.00 0.00 65 1024.3
20201020092537 2 338 1.6 6.4 0.00 0.00 0.00 63 1024.1
20201020091519 2 315 1.6 4.8 0.00 0.00 0.00 63 1024.1
20201020090530 2 0.0 4.8 0.00 0.00 0.00 61 1024.4
20201020085526 3 0 1.6 6.4 0.00 0.00 0.00 59 1024.3
20201020084518 3 0.0 4.8 0.00 0.00 0.00 60 1024.4
20201020083527 3 0.0 4.8 0.00 0.00 0.00 61 1024.0
20201020082529 3 338 1.6 6.4 0.00 0.00 0.00 61 1023.8
20201020081529 3 338 1.6 6.4 0.00 0.00 0.00 61 1023.8
20201020080523 3 0.0 4.8 0.00 0.00 0.00 62 1024.0
20201020075529 3 0.0 3.2 0.00 0.00 0.00 62 1024.0
20201020074529 3 338 1.6 8.0 0.00 0.00 0.00 61 1024.0
20201020073529 3 0.0 8.0 0.00 0.00 0.00 61 1024.0
20201020072528 3 0.0 3.2 0.00 0.00 0.00 62 1024.0
20201020071533 3 0.0 3.2 0.00 0.00 0.00 63 1024.0
20201020070530 3 0.0 1.6 0.00 0.00 0.00 63 1023.6
20201020065529 3 0.0 3.2 0.00 0.00 0.00 63 1023.5
20201020064529 3 0.0 3.2 0.00 0.00 0.00 63 1023.5
20201020063517 3 0.0 0.0 0.00 0.00 0.00 63 1023.7
20201020062531 3 0.0 3.2 0.00 0.00 0.00 63 1023.5
20201020061536 3 338 1.6 4.8 0.00 0.00 0.00 63 1023.5
20201020060517 3 0.0 1.6 0.00 0.00 0.00 63 1023.6
20201020055533 3 338 1.6 8.0 0.00 0.00 0.00 63 1023.9
20201020054525 3 0.0 4.8 0.00 0.00 0.00 64 1023.9
20201020053533 3 338 1.6 4.8 0.00 0.00 0.00 64 1023.9
20201020052531 3 338 1.6 8.0 0.00 0.00 0.00 64 1023.5
20201020051529 3 0.0 3.2 0.00 0.00 0.00 63 1023.5
20201020050523 3 0.0 3.2 0.00 0.00 0.00 64 1023.5
20201020045518 3 0.0 1.6 0.00 0.00 0.00 64 1023.5
20201020044536 3 338 1.6 8.0 0.00 0.00 0.00 63 1023.5
20201020043522 3 0.0 4.8 0.00 0.00 0.00 65 1023.5
20201020042532 3 0.0 1.6 0.00 0.00 0.00 65 1023.5
20201020041519 3 0.0 1.6 0.00 0.00 0.00 65 1023.5
20201020040518 3 0.0 3.2 0.00 0.00 0.00 66 1023.4
20201020035530 3 0.0 1.6 0.00 0.00 0.00 67 1022.8
20201020034519 3 0.0 4.8 0.00 0.00 0.00 67 1022.8
20201020033529 3 0.0 1.6 0.00 0.00 0.00 67 1023.0
20201020032517 3 0.0 0.0 0.00 0.00 0.00 67 1023.4
20201020031535 3 0.0 1.6 0.00 0.00 0.00 67 1023.4
20201020030518 3 0.0 3.2 0.00 0.00 0.00 67 1023.4
20201020025519 3 0.0 0.0 0.00 0.00 0.00 69 1023.4
20201020024530 3 0.0 1.6 0.00 0.00 0.00 69 1023.4
20201020023529 3 0.0 0.0 0.00 0.00 0.00 70 1023.6
20201020022521 3 0.0 0.0 0.00 0.00 0.00 70 1023.6
20201020021518 3 0.0 0.0 0.00 0.00 0.00 70 1023.5
20201020020529 3 0.0 0.0 0.00 0.00 0.00 71 1023.3
20201020015518 3 0.0 1.6 0.00 0.00 0.00 71 1023.4
20201020014530 3 0.0 0.0 0.00 0.00 0.00 71 1023.4
20201020013529 3 0.0 0.0 0.00 0.00 0.00 71 1023.4
20201020012531 3 0.0 3.2 0.00 0.00 0.00 72 1023.3
20201020011531 3 0.0 0.0 0.00 0.00 0.00 72 1023.3
20201020010521 3 0.0 4.8 0.00 0.00 0.00 72 1023.4
20201020005522 3 338 3.2 6.4 0.00 0.00 0.00 71 1023.2
20201020004527 3 0.0 1.6 0.00 0.00 0.00 69 1023.2
20201020003528 3 0.0 4.8 0.00 0.00 0.00 70 1023.3
20201020002530 3 0.0 0.0 0.00 0.00 0.00 70 1023.2
20201020001525 3 0.0 1.6 0.00 0.00 0.00 70 1023.2
20201020000531 3 0.0 4.8 0.00 0.00 0.00 70 1022.9
20201019235519 3 0.0 0.0 0.00 0.00 0.00 70 1023.2
20201019234520 3 0.0 0.0 0.00 0.00 0.00 70 1023.2
20201019233531 3 0.0 1.6 0.00 0.00 0.00 70 1023.1
20201019232520 3 0.0 0.0 0.00 0.00 0.00 69 1023.3
20201019231520 3 0.0 4.8 0.00 0.00 0.00 68 1023.3
20201019230527 3 0.0 1.6 0.00 0.00 0.00 69 1023.2
20201019225529 3 0.0 6.4 0.00 0.00 0.00 69 1023.3
20201019224524 3 0.0 3.2 0.00 0.00 0.00 69 1023.3
20201019223520 3 0.0 3.2 0.00 0.00 0.00 69 1023.3
20201019222530 4 0.0 1.6 0.00 0.00 0.00 68 1023.3
20201019221533 4 0.0 4.8 0.00 0.00 0.00 66 1023.3
20201019220530 4 0.0 3.2 0.00 0.00 0.00 63 1023.0
20201019215520 4 0.0 1.6 0.00 0.00 0.00 63 1022.8
20201019214530 5 0.0 4.8 0.00 0.00 0.00 63 1022.9
20201019213532 5 338 1.6 6.4 0.00 0.00 0.00 63 1022.9
20201019212532 5 0.0 3.2 0.00 0.00 0.00 64 1022.9
20201019211530 4 0.0 1.6 0.00 0.00 0.00 64 1022.9
20201019210531 4 0.0 4.8 0.00 0.00 0.00 64 1023.2
20201019205519 4 0.0 4.8 0.00 0.00 0.00 64 1023.5
20201019204518 4 0.0 6.4 0.00 0.00 0.00 63 1023.5
20201019203519 4 0.0 4.8 0.00 0.00 0.00 64 1023.9
20201019202528 4 0.0 3.2 0.00 0.00 0.00 64 1024.3
20201019201527 4 0.0 1.6 0.00 0.00 0.00 64 1024.3
20201019200530 4 0.0 0.0 0.00 0.00 0.00 64 1024.3
20201019195530 4 0.0 4.8 0.00 0.00 0.00 64 1024.0
20201019194518 4 0.0 4.8 0.00 0.00 0.00 65 1024.0
20201019193519 4 338 1.6 6.4 0.00 0.00 0.00 63 1024.0
20201019192528 4 338 1.6 8.0 0.00 0.00 0.00 64 1024.2
20201019191535 4 338 3.2 8.0 0.00 0.00 0.00 64 1024.2
20201019190535 4 0.0 4.8 0.00 0.00 0.00 64 1024.3
20201019185524 5 338 1.6 9.7 0.00 0.00 0.00 63 1023.9
20201019184531 5 0.0 4.8 0.00 0.00 0.00 62 1023.9
20201019183519 5 338 1.6 9.7 0.00 0.00 0.00 61 1023.7
20201019182530 5 338 1.6 6.4 0.00 0.00 0.00 62 1023.5
20201019181530 5 315 1.6 8.0 0.00 0.00 0.00 62 1023.5
20201019180531 5 338 1.6 11.3 0.00 0.00 0.00 62 1023.5
20201019175535 5 338 1.6 12.9 0.00 0.00 0.00 62 1023.4
20201019174530 5 338 1.6 8.0 0.00 0.00 0.00 61 1023.4
20201019173521 5 338 1.6 9.7 0.00 0.00 0.00 62 1023.6
20201019172519 5 338 1.6 8.0 0.00 0.00 0.00 62 1023.6
20201019171530 4 0 1.6 8.0 0.00 0.00 0.00 63 1023.6